Showing default

QIANFAN-94, 66036

Orbit data source: Space-Track

QIANFAN-94, 66036 is a Chinese payload satellite in LEO that was launched on Fri, 17 Oct 2025 UTC via a CHANG ZHENG 6A launch vehicle from the Taiyaun Space Center, China (TSC). Payload-class satellites include a variety of spacecraft equipped with specific instruments for various scientific and technological missions. These include communications satellites like Starlink; space stations such as the ISS; scientific satellites like the Hubble; Earth observation satellites from companies like Planet Labs, Umbra, and HawkEye 360; GPS; miniature CubeSats for education and research; and military/defense satellites.

Loading next visibility...
Identifier
66036, 2025-233D
Orbit
LEO
Country
Flag of CNCN / PRC
Related business
Manufacturer
SECM
Mission
Operational Commercial Communications
Bus & Motor
QIANFAN, Unknown motor
Mass
267 kg wet, ~267 kg dry
Launch date (UTC)
2025-10-17 (7 months ago)
Launch vehicle
CHANG ZHENG 6A
Launch site
Taiyaun Space Center, China (TSC)
Object type
Payload
Rocket body
Debris
Shape & HBR
Box + 1 Pan, 14.5 m
Radar Cross Section
13.200 m²

Expand to show TLE details & history
Last TLE update: 8 hours ago

TLE from 8 hours ago
0 QIANFAN-94
1 66036U 25233D   26130.14315453  .00000126  00000-0  17648-3 0  9992
2 66036  89.0027  46.9546 0002237  73.3968 286.7429 13.51016590 28091
Epoch: 2026-05-10T03:26Z
TLE epoch observation values (Epoch: 2026-05-10T03:26:08.551Z)
Latitude
0.00002°
Longitude
127.4685°
Altitude
1,070.994 km
Speed
7.317 km/s
True Right ascension
03h 07m 49s
True Declination
0° 00' 00"
Sunlit
Object was in daylight at epoch
Visualization orbit readout
Latitude
Unknown
Longitude
Unknown
Altitude
Unknown
Speed
Unknown
Apparent Right ascension
Unknown
Apparent Declination
Unknown
Sunlit
N/A
Visualization observer readout
Local Sidereal Time
19:44:58
Azimuth
Unknown
Elevation
Unknown
Doppler factor
Unknown
Orbital elements
Apogee altitude
1,067.237 km
Perigee altitude
1,063.906 km
Semi-major axis
7,443.709 km
Eccentricity
0.00022
Inclination
89.0027°
RAAN
46.9546°
Arg. of periapsis
73.3968°
True anomaly
286.71835°
Mean anomaly
286.7429°
Eccentric anomaly
286.73063°
Mean motion
3.37955 °/min
Orbital period
106.52 mins
BSTAR
0.00017648
Loading maneuver chart data...
Computing Atmospheric mass density...
Loading historical data...
Loading historical data...
Loading historical data...
Loading historical data...
Loading historical data...
Loading historical data...
Loading historical data...

Documentation

Showing up to 5 results
|